Date,TemperatureHighF,TemperatureAvgF,TemperatureLowF,DewpointHighF,DewpointAvgF,DewpointLowF,HumidityHigh,HumidityAvg,HumidityLow,PressureMaxIn,PressureMinIn,WindSpeedMaxMPH,WindSpeedAvgMPH,GustSpeedMaxMPH,PrecipitationSumIn
2013-3-1,61,54,46,-100,-100,-100,0,0,100,30.29,30.14,15,8,17,0.00
2013-3-2,58,54,47,-100,-100,-100,0,0,100,30.40,30.24,25,18,30,0.00
2013-3-3,63,58,53,-100,-100,-100,0,0,100,30.28,30.02,22,13,26,0.00
2013-3-4,69,66,62,-100,-100,-100,0,0,100,30.00,29.79,29,23,37,0.00
2013-3-5,66,63,57,-100,-100,-100,0,0,100,30.30,29.81,32,21,39,0.00
2013-3-6,58,54,48,-100,-100,-100,0,0,100,30.42,30.25,24,14,29,0.00
2013-3-7,64,62,58,-100,-100,-100,0,0,100,30.24,30.14,21,14,24,0.00
2013-3-8,67,64,63,-100,-100,-100,0,0,100,30.15,30.04,18,14,21,0.00
2013-3-9,67,66,65,-100,-100,-100,0,0,100,30.04,29.72,20,15,23,0.00
2013-3-10,69,64,57,-100,-100,-100,0,0,100,30.04,29.65,37,18,46,0.00
2013-3-11,64,58,53,-100,-100,-100,0,0,100,30.15,30.01,26,17,31,0.00
2013-3-12,64,61,58,-100,-100,-100,0,0,100,30.22,30.07,15,10,17,0.00
2013-3-13,65,61,56,-100,-100,-100,0,0,100,30.42,30.22,18,13,20,0.00
2013-3-14,67,64,61,-100,-100,-100,0,0,100,30.40,30.28,14,10,17,0.00
2013-3-15,69,66,63,-100,-100,-100,0,0,100,30.28,30.08,17,12,22,0.00
2013-3-16,69,67,65,-100,-100,-100,0,0,100,30.06,29.84,20,16,23,0.00
2013-3-17,71,68,67,-100,-100,-100,0,0,100,29.86,29.70,17,14,21,0.00
2013-3-18,73,69,67,-100,-100,-100,0,0,100,29.87,29.73,13,7,15,0.00
2013-3-19,70,68,66,-100,-100,-100,0,0,100,29.96,29.85,26,16,30,0.00
2013-3-20,67,66,63,-100,-100,-100,0,0,100,30.14,29.90,36,20,45,0.00
2013-3-21,68,66,64,-100,-100,-100,0,0,100,30.04,29.69,20,14,24,0.00
2013-3-22,70,69,67,-100,-100,-100,0,0,100,29.73,29.65,17,11,21,0.00
2013-3-23,72,68,64,-100,-100,-100,0,0,100,29.71,29.59,16,9,18,0.00
2013-3-24,68,60,55,-100,-100,-100,0,0,100,30.11,29.63,34,22,39,0.00
2013-3-25,60,54,48,-100,-100,-100,0,0,100,30.34,30.11,30,19,36,0.00
2013-3-26,58,55,51,-100,-100,-100,0,0,100,30.47,30.32,25,15,28,0.00
2013-3-27,64,61,58,-100,-100,-100,0,0,100,30.35,30.21,18,14,21,0.00
2013-3-28,67,65,64,-100,-100,-100,0,0,100,30.23,30.16,16,10,18,0.00
2013-3-29,69,67,64,-100,-100,-100,0,0,100,30.19,30.10,13,9,14,0.00
2013-3-30,70,68,66,-100,-100,-100,0,0,100,30.11,29.96,17,12,20,0.00
2013-3-31,73,70,68,-100,-100,-100,0,0,100,29.97,29.83,20,14,23,0.00